Tracking 19795 objects as of 18-Jul-2019
HD Live streaming from Space Station
objects crossing your sky now

OPS 3367 A

Track OPS 3367 A now!
10-day predictions
OPS 3367 A is classified as:


NORAD ID: 734
Int'l Code: 1964-002B
Perigee: 792.9 km
Apogee: 812.5 km
Inclination: 99.1 °
Period: 100.8 minutes
Semi major axis: 7173 km
RCS: 0.3359 m2 (medium)
Launch date: January 19, 1964
Source: United States (US)
Launch site: AIR FORCE WESTERN TEST RANGE (AFWTR)
aabbcc
Your satellite tracking list
Your tracking list is empty




NASA's NSSDC Master Catalog

Two Line Element Set (TLE):
1   734U 64002B   19198.50723502 -.00000024  00000-0  95294-5 0  9999
2   734  99.0964 355.2747 0013663 301.6988  58.2859 14.28853291887968
Source of the keplerian elements: AFSPC